User: anonymous
Location: Innerarity Island Observatory
(30.3139°N, 87.4867°W)
Time: 06:27:34
(UTC-05:00)
Language:

OPAL - Orbit

View from above orbital plane
View from above orbital plane
View from above satellite
View from above satellite

Ground track
Ground track

The orbit data is extracted from the following two-line orbital elements,

1 26063U 00004C   14258.50459672  .00000140  00000-0  67672-4 0   560
2 26063 100.2235 061.2174 0035992 263.1598 096.5486 14.36396554766985
Epoch (UTC): 15 September 2014 12:06:37
Eccentricity: 0.0035992
inclination: 100.2235°
perigee height: 745 km
apogee height: 796 km
right ascension of ascending node: 61.2174°
argument of perigee: 263.1598°
revolutions per day: 14.36396554
mean anomaly at epoch: 96.5486°
orbit number at epoch: 76698

The dashed part of the orbit path shows where the satellite is in the earth's shadow,  

DLR